TimeMST,TemperatureF,Dew PointF,Humidity,Sea Level PressureIn,VisibilityMPH,Wind Direction,Wind SpeedMPH,Gust SpeedMPH,PrecipitationIn,Events,Conditions,WindDirDegrees,DateUTC
12:53 AM,21.9,17.1,82,30.40,5.0,WNW,3.5,-,N/A,,Haze,290,2014-01-19 07:53:00
1:53 AM,21.9,12.9,68,30.39,10.0,South,8.1,-,N/A,,Clear,170,2014-01-19 08:53:00
2:53 AM,23.0,14.0,68,30.39,10.0,South,6.9,-,N/A,,Clear,170,2014-01-19 09:53:00
3:53 AM,21.9,14.0,72,30.39,10.0,South,6.9,-,N/A,,Clear,180,2014-01-19 10:53:00
4:53 AM,21.9,12.9,68,30.38,10.0,SSE,6.9,-,N/A,,Clear,160,2014-01-19 11:53:00
5:53 AM,21.0,12.9,71,30.38,10.0,South,6.9,-,N/A,,Clear,190,2014-01-19 12:53:00
6:53 AM,23.0,12.9,65,30.39,10.0,Calm,Calm,-,N/A,,Clear,0,2014-01-19 13:53:00
7:53 AM,21.9,14.0,72,30.40,8.0,Calm,Calm,-,N/A,,Clear,0,2014-01-19 14:53:00
8:53 AM,25.0,12.9,60,30.41,10.0,Variable,3.5,-,N/A,,Clear,0,2014-01-19 15:53:00
9:53 AM,26.1,15.1,63,30.42,10.0,SSE,5.8,-,N/A,,Clear,160,2014-01-19 16:53:00
10:53 AM,30.9,18.0,59,30.40,10.0,South,3.5,-,N/A,,Clear,170,2014-01-19 17:53:00
11:53 AM,35.1,19.9,54,30.37,10.0,South,8.1,-,N/A,,Clear,180,2014-01-19 18:53:00
12:53 PM,34.0,21.9,61,30.35,7.0,NNW,4.6,-,N/A,,Clear,330,2014-01-19 19:53:00
1:53 PM,36.0,23.0,59,30.32,6.0,WNW,6.9,-,N/A,,Haze,300,2014-01-19 20:53:00
2:53 PM,35.1,23.0,61,30.31,6.0,NW,4.6,-,N/A,,Haze,320,2014-01-19 21:53:00
3:53 PM,35.1,21.0,57,30.30,7.0,Calm,Calm,-,N/A,,Clear,0,2014-01-19 22:53:00
4:53 PM,33.1,21.0,61,30.30,7.0,NW,4.6,-,N/A,,Clear,310,2014-01-19 23:53:00
5:53 PM,28.0,19.0,69,30.32,8.0,Calm,Calm,-,N/A,,Clear,0,2014-01-20 00:53:00
6:53 PM,28.0,18.0,66,30.30,8.0,Calm,Calm,-,N/A,,Clear,0,2014-01-20 01:53:00
7:53 PM,28.9,17.1,61,30.30,8.0,Calm,Calm,-,N/A,,Clear,0,2014-01-20 02:53:00
8:53 PM,25.0,16.0,69,30.32,10.0,Calm,Calm,-,N/A,,Clear,0,2014-01-20 03:53:00
9:53 PM,25.0,17.1,72,30.32,7.0,Calm,Calm,-,N/A,,Clear,0,2014-01-20 04:53:00
10:53 PM,24.1,16.0,71,30.32,10.0,Calm,Calm,-,N/A,,Clear,0,2014-01-20 05:53:00
11:53 PM,21.9,14.0,72,30.31,10.0,South,4.6,-,N/A,,Clear,190,2014-01-20 06:53:00